Location: Croydon
(51.3762°N, 0.0982°W)
Time: 07:50:36
(UTC+01:00)

VELOX 1 - Pass Details

Date: 29 April 2019
Orbit: 629 x 644 km, 98.2° (Epoch: 23 May)

Event Time Altitude Azimuth Distance (km) Brightness Sun altitude
Exits shadow 01:50:12 71° 134° (SE) 671 ? -23.3°
Maximum altitude 01:50:38 81° 73° (ENE) 646 ? -23.3°
Drops below altitude 10° 01:55:02 10° 347° (NNW) 2,024 ? -23.1°
Sets 01:57:15 0° 347° (NNW) 2,938 ? -23.0°
